Simultaneous Nadir Overpasses (SNOs) Predictions

Prediction of SNOs between GOES-14 and AQUA Satellite Orbit:

Table of predicted SNOs for the next 14.0 days since TLE Epoch: 7/10/2018
Index Date Time (GOES-14) GOES-14 Lat,Lon AQUA Lat,Lon Distance(km) Time Diff (sec)
1 07/11/2018 20:33:08 0.18,-104.48 0.29,-104.01 53.59 80
2 07/13/2018 20:20:56 0.18,-104.49 0.91,-101.05 390.50 80
3 07/14/2018 08:39:31 -0.21,-104.33 0.22,-106.20 213.19 80
4 07/16/2018 08:30:00 -0.20,-104.34 -0.46,-103.26 124.02 80
5 07/16/2018 20:48:43 0.23,-104.50 -0.64,-108.45 449.73 80
6 07/18/2018 08:17:48 -0.20,-104.35 -1.08,-100.30 461.60 80
7 07/18/2018 20:36:32 0.22,-104.51 -0.01,-105.49 111.97 80
8 07/20/2018 20:27:01 0.22,-104.53 0.67,-102.54 225.97 80
9 07/21/2018 08:45:35 -0.25,-104.38 0.47,-107.69 377.29 80
10 07/23/2018 08:33:23 -0.25,-104.39 -0.15,-104.73 39.53 80




NCC Satellite Simultaneous Nadir Overpasses (SNOs) Prediction Service
